www.pogodaiklimat.ru

Погода и климат >> Архив погоды >> Индонезия >> Биак


ПОГОДА в Биаке

  • Прогноз погоды в Биаке
  • Монитор погоды в Биаке

АРХИВ ПОГОДЫ в Биаке

Время (UTC), дата Ветер
(напр.,м/с)
 
Видим.   Явления Облачность Т
(С)
Тd
(С)
f
(%)
Тe
(С)
Тes
(С)
Комфортность P
(гПа)
Po
(гПа)
Тmin
(С)
Tmax
(С)
R
(мм)
R24
(мм)
S
(см)
03 9.09 ЮЗ 5 10 км 6/4 540 м
[Cu med, cong Ac trans Cs]
+29.6 +24.3 73 +41 +48 опасность
перегрева
1008.8 1007.5
06 9.09 З 3 10 км 6/4 540 м
[Cu med, cong Ac trans Cs]
+29.8 +24.2 72 +42 +46 опасность
перегрева
1007.0 1005.7
09 9.09 ЮЗ 2 10 км 6/4 540 м
[Cu med, cong Ac trans Cs]
+28.3 +23.0 73 +38 +38 очень
душно
1008.7 1007.4
12 9.09 С 2 10 км 8/1 540 м
[Cu hum Ac trans Cs]
+26.0 +23.5 86 +35 +35 очень
душно
1009.8 1008.5 +30.2
15 9.09 СЗ 2 10 км 8/1 540 м
[Cu hum Ac trans Cs]
+25.0 +23.1 89 +33 +33 очень
душно
1009.3 1008.0
18 9.09 З 3 10 км 8/1 540 м
[Cu hum Ac trans Cs]
+25.0 +23.3 90 +33 +33 очень
душно
1008.1 1006.8
21 9.09 ЮЗ 4 10 км 8/1 540 м
[Cu hum Ac trans Cs]
+27.8 +24.0 80 +39 +39 очень
душно
1008.7 1007.4
00 10.09 ЮЗ 4 10 км 6/3 540 м
[Cu hum Ac trans Cs]
+28.7 +24.2 77 +40 +44 очень
душно
1009.9 1008.6 +24.0
03 10.09 З 1 10 км 6/4 540 м
[Cu Sc Ac trans Cs]
+29.6 +24.6 75 +42 +55 опасность
перегрева
1008.4 1007.1
06 10.09 З 6 10 км 6/4 540 м
[Cu Sc Ac trans Cs]
+29.5 +24.0 72 +41 +43 опасность
перегрева
1006.4 1005.1
09 10.09 З 2 10 км 8/3 540 м
[Cu med, cong Ac trans Cs]
+28.1 +23.3 75 +38 +38 очень
душно
1007.8 1006.5
12 10.09 З 2 10 км 6/3 540 м
[Cu med, cong Ac trans Cs]
+25.5 +23.0 86 +34 +34 очень
душно
1010.1 1008.8 +29.9
15 10.09 ЮЗ 3 10 км 6/3 540 м
[Cu med, cong Ac trans Cs]
+28.3 +24.4 79 +40 +40 очень
душно
1009.7 1008.4
18 10.09 ЮЗ 4 10 км 6/4 540 м
[Cu med, cong Ac trans Cs]
+28.0 +24.2 80 +39 +39 очень
душно
1008.8 1007.5
21 10.09 ЮЗ 3 10 км 8/4 540 м
[Cu med, cong Ac trans Cs]
+27.9 +24.1 80 +39 +39 очень
душно
1009.7 1008.4
00 11.09 З 4 10 км 6/3 540 м
[Cu hum Ac trans Cs]
+29.5 +24.2 73 +41 +45 опасность
перегрева
1010.5 1009.2 +25.3
03 11.09 ЮЗ 2 10 км 6/4 540 м
[Cu med, cong Ac cuf Cs]
+30.1 +23.7 69 +41 +53 опасность
перегрева
1008.9 1007.6
06 11.09 З 4 10 км 5/4 540 м
[Cu med, cong Ac cuf Cs]
+30.0 +25.0 75 +43 +48 опасность
перегрева
1007.2 1005.9
09 11.09 З 4 10 км 6/4 540 м
[Cu med, cong Ac trans Ci sp]
+27.9 +23.8 78 +38 +38 очень
душно
1008.5 1007.2
12 11.09 СЗ 2 10 км 6/3 540 м
[Cu med, cong Ac trans Cs]
+25.6 +23.2 87 +34 +34 очень
душно
1010.6 1009.3 +30.5
15 11.09 штиль 0 10 км 6/3 540 м
[Cu med, cong Ac trans Cs]
+24.7 +23.0 90 +33 +33 очень
душно
1010.4 1009.1
18 11.09 ЮЗ 2 10 км 9/3 540 м
[Cu med, cong As op Cs]
+27.8 +24.4 82 +39 +39 очень
душно
1009.5 1008.2
21 11.09 ЮВ 1 10 км 9/3 540 м
[Cu med, cong As op Cs]
+27.8 +24.1 80 +39 +39 очень
душно
1010.2 1008.9
00 12.09 Ю 1 10 км 10/4 540 м
[Cu Sc Ac trans Cc]
+29.8 +25.1 76 +43 +47 опасность
перегрева
1011.3 1010.0 +24.2
03 12.09 ЮЗ 4 10 км 10/4 540 м
[Cu Sc Ac trans Cc]
+28.7 +24.2 77 +40 +45 очень
душно
1009.4 1008.1
06 12.09 З 5 10 км 10/4 540 м
[Cu Sc Ac trans Cc]
+29.2 +24.0 74 +41 +42 опасность
перегрева
1007.8 1006.5
09 12.09 З 4 10 км 10/4 540 м
[Cu Sc Ac trans Cc]
+28.0 +23.7 77 +38 +38 очень
душно
1008.7 1007.4
12 12.09 СЗ 2 10 км 6/3 540 м
[Cu Sc Cs]
+25.7 +23.6 88 +35 +35 очень
душно
1010.4 1009.1 +31.0
15 12.09 СЗ 2 10 км 9/3 540 м
[Cu Sc Ac trans Cc]
+25.6 +23.8 90 +35 +35 очень
душно
1010.7 1009.4
18 12.09 СЗ 1 10 км 9/4 540 м
[Cu Sc Ac trans Cc]
+25.7 +24.1 91 +36 +36 очень
душно
1009.9 1008.6
21 12.09 ЮЗ 1 10 км 6/4 540 м
[Cu med, cong Ac trans Cs]
+27.6 +24.5 83 +39 +39 очень
душно
1010.8 1009.5
00 13.09 З 2 10 км 8/3 540 м
[Cu med, cong Ac trans Ci sp]
+29.4 +23.9 72 +40 +46 очень
душно
1011.8 1010.5 +24.8
03 13.09 З 4 10 км 6/1 540 м
[Cu med, cong Ac trans Ci sp]
+29.4 +24.1 73 +41 +51 опасность
перегрева
1009.1 1007.8
06 13.09 ЮЗ 3 10 км 4/1 540 м
[Cu med, cong Ac trans Cs]
+29.7 +24.8 75 +42 +50 опасность
перегрева
1007.6 1006.3
09 13.09 З 2 10 км 8/3 540 м
[Cu med, cong Ac trans Cs]
+28.2 +24.0 78 +39 +39 очень
душно
1009.1 1007.8
12 13.09 СЗ 2 10 км 6/3 540 м
[Cu med, cong Ac trans Cs]
+26.6 +23.6 84 +36 +36 очень
душно
1011.6 1010.3 +30.8
15 13.09 С 1 10 км 6/3 540 м
[Cu med, cong Ac trans Cs]
+25.8 +23.2 86 +35 +35 очень
душно
1011.4 1010.1
18 13.09 СЗ 1 10 км 6/3 540 м
[Cu med, cong Ac trans Cs]
+24.6 +23.4 93 +33 +33 очень
душно
1010.9 1009.6
21 13.09 СВ 2 10 км 6/3 540 м
[Cu med, cong Ac trans Cs]
+25.9 +24.3 91 +36 +36 очень
душно
1012.0 1010.7
00 14.09 ЮВ 1 10 км 8/3 540 м
[Cu Sc Ac lent Ci fib]
+29.2 +23.9 73 +40 +46 очень
душно
1012.8 1011.5 +24.4
03 14.09 ЮВ 5 10 км 8/4 540 м
[Cu med, cong Ac lent Cs]
+30.1 +24.8 73 +43 +48 опасность
перегрева
1010.5 1009.2
06 14.09 штиль 0 5000 м осадки на расстоянии 8/4 540 м
[Cu med, cong Ac lent Cs]
+28.8 +24.7 79 +41 +47 опасность
перегрева
1008.7 1007.4
09 14.09 З 1 9000 м {ливн. осадки} 9/4 540 м
[Cu med, cong Ac trans Cs]
+28.1 +24.7 82 +40 +40 очень
душно
1010.0 1008.7 0.0
12 14.09 С 2 10 км {ливн. осадки} 8/3 540 м
[Cu Sc Ac trans Cs]
+26.3 +24.5 90 +37 +37 очень
душно
1011.6 1010.3 +31.2 0.0
15 14.09 СВ 2 10 км 5/1 540 м
[Cu med, cong Cs]
+26.4 +24.2 88 +37 +37 очень
душно
1011.6 1010.3
18 14.09 С 1 10 км 5/3 540 м
[Cu med, cong Ac trans Cs]
+25.4 +24.0 92 +35 +35 очень
душно
1010.8 1009.5
21 14.09 С 2 10 км 10/1 540 м
[Cu med, cong Cs]
+24.7 +23.7 94 +34 +34 очень
душно
1011.4 1010.1
00 15.09 ЮВ 4 10 км 6/4 540 м
[Cu med, cong Ac trans Cs]
+30.1 +24.1 70 +42 +45 опасность
перегрева
1012.5 1011.2 +24.2 0.0
03 15.09 ЮВ 5 10 км 6/4 540 м
[Cu med, cong Ac trans Cs]
+31.3 +23.8 64 +42 +49 опасность
перегрева
1010.1 1008.8
06 15.09 В 7 10 км 6/4 540 м
[Cu med, cong Ac trans Cs]
+30.3 +24.0 69 +42 +44 опасность
перегрева
1008.4 1007.1
09 15.09 СВ 3 10 км 6/4 540 м
[Cu med, cong Ac trans Cs]
+28.7 +24.2 77 +40 +40 очень
душно
1009.9 1008.6
12 15.09 СЗ 1 10 км 6/3 540 м
[Cu med, cong Ac trans Cs]
+25.9 +24.1 90 +36 +36 очень
душно
1011.8 1010.5 +31.5
15 15.09 СВ 2 10 км 6/3 540 м
[Cu med, cong Ac trans Cs]
+26.0 +24.2 90 +36 +36 очень
душно
1011.8 1010.5
18 15.09 штиль 0 10 км 6/3 540 м
[Cu med, cong Ac trans Cs]
+25.5 +24.0 91 +35 +35 очень
душно
1010.9 1009.6
21 15.09 СВ 2 10 км 6/3 540 м
[Cu med, cong Ac trans Cs]
+25.4 +23.9 91 +35 +35 очень
душно
1011.6 1010.3

 

Местоположение метеостанции Биак (Индонезия): широта -1.18 долгота 136.11 высота над уровнем моря 11 м.

В архиве по умолчанию представлена погода в Биаке за последнюю неделю. Архивные данные за месяц целиком и за предыдущие месяцы, начиная с января 2011 года, Вы можете получить, выбрав интересующий диапазон дат из раскрывающегося списка и нажав кнопку "Ввод!".


*Определитесь, кто Вы:
робот инопланетянин человек

Внимание! Время в таблицах - всемирное. Для получения местного времени необходимо прибавить поправку, которая равна 9 ч.

Смотрите также архив погоды в соседних городах и на ближайших метеорологических станциях:

Погода в Серуи (Индонезия) (78 км)
Погода в Маноквари (Индонезия) (232 км)
Погода в Набире (Индонезия) (249 км)
Погода в Сарми (Индонезия) (298 км)
Погода в Энаротали (Индонезия) (306 км)
Погода в Каимана (Индонезия) (381 км)
Погода в Коконао (Индонезия) (450 км)
Погода в Вамене (Индонезия) (450 км)
Погода в Факфаке (Индонезия) (470 км)
Погода в Сентани (Индонезия) (514 км)

Пояснения к столбцам:

Ветер - указаны скорость ветра в м/с - средняя за 10 мин, порывы в срок и между сроками (в фигурных скобках) и направление, откуда дует ветер: С - северный, СВ - северо-восточный, В - восточный, ЮВ - юго-восточный, Ю - южный, ЮЗ - юго-западный, З - западный, СЗ - северо-западный.
Видимость - горизонтальная дальность видимости в метрах или километрах. При видимости от 1 до 10 км при отсутствии осадков обычно наблюдается дымка, при ухудшении видимости до 1 км и менее - туман. В сухую погоду видимость может ухудшаться дымом, пылью или мглою.
Явления - указаны атмосферные явления, наблюдавшиеся в срок или в последний час перед сроком; фигурными скобками обозначены явления, наблюдавшиеся между сроками (за 1-3 часа до срока); квадратными скобками обозначены град или гололедные отложения с указанием их диаметра в мм.
Облачность - указаны через наклонную черту общая и нижняя облачность в баллах и высота нижней границы облаков в метрах; квадратными скобками обозначены формы облаков: Ci - перистые, Cs - перисто-слоистые, Cc - перисто-кучевые, Ac - высококучевые, As - высокослоистые, Sc - слоисто-кучевые, Ns - слоисто-дождевые, Cu - кучевые, Cb - кучево-дождевые. Подробнее классификацию облаков см. в Атласе облаков (PDF).
T - Температура воздуха - температура, измеренная на высоте 2 м над землей.
Td - Температура точки росы - температура, при понижении до которой содержащийся в воздухе водяной пар достигнет насыщения.
f - Относительная влажность воздуха - влажноcть воздуха, измеренная на высоте 2 м над землей.
Te - Эффективная температура - температура, которую ощущает одетый по сезону человек в тени. Характеристика душности погоды. При расчете учитывается влияние влажности воздуха и скорости ветра на теплоощущения человека.
Tes - Эффективная температура на солнце - температура, которую ощущает человек, с поправкой на солнечный нагрев. Характеристика знойности погоды. Зависит от высоты солнца над горизонтом, облачности и скорости ветра. Ночью, в пасмурную погоду, а также при ветре 12 м/с и более поправка равна нулю.
P - Атмосферное давление - приведенное к уровню моря атмосферное давление.
Po - Атмосферное давление - измеренное на уровне метеостанции атмосферное давление.
Tmin - Минимальная температура - минимум температуры воздуха на высоте 2 м над землей.
Tmax - Максимальная температура - максимум температуры воздуха на высоте 2 м над землей.
R - Количество осадков - Количество выпавших осадков за период времени, мм. При наведении курсора мыши на число - период времени, за который выпало указанное количество осадков.
R24 - Количество осадков - Количество выпавших осадков за 24 часа, мм.
S - Снежный покров - Высота снежного покрова, см. При наведении курсора мыши на число - состояние снежного покрова и степень покрытия местности в баллах.